Zurück zum Katalog

TITAN 3C TRANSTAGE DEB

AktivLEO
NORAD 1859·DEBRIS·🇺🇸 United States

Gestartet Oct 15, 1965 von Cape Canaveral Space Force Station

Loading…

Nächste Überflüge (nächste 24 Stunden)

TLE

AktuellSource: Space-Track

Epoche: Sep 14, 2026, 15:11 UTC

1 01859U 65082ES  26257.63283699  .00000335  00000-0  75379-4 0  9998
2 01859  32.1273   7.8962 0066472  79.7317 281.0811 14.49208093200052

Verfolge TITAN 3C TRANSTAGE DEB in Echtzeit mit AllMySat

Download on the App Store